RH
82 83 80 65 63 57 45 36 55 86 63 74 72 84 93 91 96 84 79 74 64 91 51 84 63 60 42 29 26 22 20 19 16
95 99 63 64 56 58 55 55 52 44 41 47 50 87 94 83 89 88 80 79 89 92 56 58 77 44 25 23 24 25 23 21 19
87 98 65 58 50 48 86 93 95 82 73 64 47 42 43 50 78 90 87 82 64 47 52 90 84 95 61 28 25 24 23 22 21
60 68 60 47 37 40 43 60 82 82 77 54 36 35 36 36 32 72 83 83 65 33 37 48 84 83 93 78 47 30 25 24 24
44 44 47 40 35 34 37 43 46 53 53 48 40 41 37 32 49 68 74 74 41 22 28 34 44 96 80 93 87 52 29 26 28
88 85 41 37 38 40 44 46 49 50 50 58 73 67 53 77 76 66 65 61 34 19 20 24 29 34 68 68 83 88 81 55 42
69 43 39 40 43 46 49 52 54 56 62 87 82 83 85 83 78 75 66 52 44 32 17 16 21 25 31 50 71 72 84 91 90
78 79 71 52 59 51 59 68 78 86 88 85 83 81 81 81 82 79 74 54 55 56 52 43 24 16 19 23 29 50 74 87 88
79 79 82 74 78 85 82 89 88 89 88 88 85 83 83 84 83 84 83 79 68 70 69 64 60 54 40 22 20 22 25 39 65
77 80 82 85 84 84 89 90 90 89 87 86 86 86 87 88 89 91 89 89 86 77 75 81 81 72 66 61 54 38 26 25 29
86 82 88 91 91 91 91 91 92 93 91 90 88 85 84 84 83 84 85 86 87 87 83 79 80 83 84 82 76 70 65 56 39
78 83 90 94 91 92 93 95 95 96 97 97 93 87 84 85 87 88 89 90 90 90 90 90 84 80 82 94 100 97 95 90 80
93 95 93 96 99 98 99 97 94 88 85 81 78 79 79 80 80 80 81 83 86 88 90 92 94 94 88 84 89 93 99 99 98
91 100 96 88 89 83 77 66 68 65 56 62 60 62 64 68 65 70 72 77 79 81 85 83 85 90 86 83 84 79 79 85 92
76 65 47 38 44 44 36 40 38 40 50 50 51 48 49 43 57 67 69 72 79 77 69 70 75 80 87 88 90 90 90 82 82
32 29 31 35 39 46 42 44 39 36 51 52 57 45 46 47 50 55 69 72 63 48 59 57 68 71 72 67 81 90 92 91 88
36 39 40 40 39 38 34 31 33 42 42 52 48 48 47 45 38 28 39 44 49 57 62 63 62 57 61 71 71 72 80 73 90
45 45 40 35 32 29 22 20 23 40 26 40 47 46 44 55 48 47 45 46 42 43 58 61 42 48 59 63 69 70 79 90 96
40 38 36 32 26 18 10 13 21 41 35 25 35 39 50 59 58 40 36 39 38 27 41 44 40 46 62 64 63 65 73 76 84
42 38 33 26 18 9 7 8 15 24 23 24 34 44 58 54 46 43 36 43 41 42 54 56 60 57 37 54 65 63 62 69 90
Wind_Speed
6 7 8 7 7 6 5 4 6 6 5 11 10 11 10 14 8 9 10 13 10 16 14 12 14 16 15 15 14 13 12 12 11
8 7 5 8 7 6 4 5 5 7 8 9 11 10 13 14 11 10 13 13 12 15 16 15 13 15 15 14 14 13 12 12 12
8 6 9 8 9 8 6 7 9 10 9 10 11 13 14 14 14 11 15 17 20 17 17 16 14 18 17 17 16 15 14 14 14
8 8 10 11 10 9 8 7 7 10 12 14 12 12 14 16 15 14 14 18 21 19 19 20 18 17 20 20 19 18 18 17 17
7 7 7 8 8 8 7 7 8 9 11 12 11 13 14 16 14 14 15 19 21 19 21 22 22 21 21 22 24 23 22 21 21
9 10 8 8 7 7 8 8 9 10 11 11 13 16 16 11 13 16 18 22 21 20 22 24 26 26 25 25 25 27 26 25 25
8 9 6 7 7 7 8 9 10 12 11 10 17 16 14 13 16 18 20 20 20 21 22 24 27 28 29 29 29 29 29 29 28
6 6 7 8 8 9 10 12 13 12 12 13 13 15 17 17 18 21 24 25 23 24 25 25 27 29 31 32 33 33 33 33 34
5 6 8 9 8 9 11 11 11 14 15 16 17 18 20 22 23 24 26 31 31 28 29 30 30 31 31 33 35 36 37 37 37
6 7 7 8 9 10 12 13 14 14 16 17 19 21 22 24 26 28 28 30 34 34 33 32 34 35 35 36 36 36 38 39 40
7 8 8 9 10 11 12 14 16 17 17 19 20 22 23 25 26 29 31 31 33 35 36 33 32 34 36 38 39 40 40 40 41
9 9 10 9 10 13 14 14 16 18 19 20 21 22 22 24 25 27 29 31 32 32 34 36 35 33 34 35 37 39 41 42 44
8 8 8 9 11 11 12 14 16 16 17 19 20 21 22 23 25 26 27 28 28 29 31 32 34 36 35 36 37 39 42 44 46
5 4 5 7 7 7 9 12 13 16 18 19 21 23 24 26 26 26 26 26 26 27 29 29 31 32 33 33 34 36 37 39 44
3 5 7 9 9 10 14 16 19 20 18 20 24 23 26 28 23 20 22 23 21 25 30 32 34 35 31 34 35 36 36 37 39
8 9 11 13 13 15 17 18 21 22 19 24 25 26 12 17 20 21 21 25 29 29 28 31 30 33 34 39 37 35 36 36 38
11 12 14 16 17 18 20 20 21 19 19 20 26 15 24 13 21 30 27 27 26 22 24 27 33 36 33 33 35 36 39 43 40
13 16 17 18 18 19 20 20 19 19 21 16 14 15 13 34 25 26 19 22 29 29 26 29 35 33 32 35 35 34 33 35 36
17 19 20 20 20 19 19 17 18 16 18 21 17 19 23 28 29 18 31 23 25 35 32 33 36 33 32 35 37 38 35 39 37
21 22 21 21 20 20 20 20 19 19 21 22 22 22 23 26 30 36 28 32 29 32 32 29 32 35 36 36 38 37 42 42 34
Wind_Direction
314 311 322 329 322 316 307 273 254 292 277 235 259 266 286 290 309 288 275 280 267 262 254 254 249 250 255 257 264 269 272 271 266
324 309 330 333 338 333 335 330 328 306 297 274 272 270 268 280 283 267 276 269 264 256 253 257 266 265 262 261 262 265 265 264 263
287 275 313 328 335 331 320 321 325 325 322 311 302 295 292 284 285 268 274 267 259 260 258 258 250 271 273 263 262 263 264 262 260
277 288 309 321 328 332 334 314 290 303 308 314 311 311 304 297 290 277 264 276 276 263 262 258 255 251 269 275 264 263 262 261 259
286 302 315 330 328 330 331 325 318 305 307 315 317 314 307 297 296 294 281 266 274 275 266 264 261 256 252 262 272 268 262 259 258
308 293 299 317 325 329 325 323 318 314 308 304 319 313 301 288 278 270 268 270 282 280 273 269 267 265 260 251 255 268 268 262 258
252 277 307 321 323 323 317 314 308 303 312 327 303 311 314 289 277 275 273 281 286 286 279 272 268 266 263 260 254 252 261 265 257
281 295 311 321 317 319 323 319 317 316 289 284 278 276 277 276 276 275 277 287 285 285 284 281 277 272 268 264 261 258 254 255 262
272 279 288 304 308 301 303 295 291 287 288 286 285 282 278 276 274 274 278 284 287 283 281 280 278 276 274 270 266 263 261 258 255
270 276 284 287 293 299 292 295 293 291 289 288 288 286 284 282 279 280 282 283 288 290 286 282 279 277 275 274 272 270 267 264 261
277 291 297 296 295 294 294 293 291 292 293 288 288 287 287 286 284 284 286 285 286 290 293 290 281 279 279 277 275 274 272 270 267
288 293 297 302 302 298 302 301 299 298 298 298 299 299 295 290 288 285 283 281 281 283 287 291 289 282 278 272 270 271 272 271 269
292 303 310 306 308 306 307 316 317 313 307 307 304 300 295 292 290 291 292 291 288 284 285 288 287 287 284 278 271 269 267 267 268
317 322 321 348 340 337 320 324 322 316 314 312 305 298 296 294 296 290 290 289 288 294 294 295 292 293 295 291 287 283 276 271 267
51 10 358 359 350 340 336 330 324 323 317 313 304 307 296 301 302 310 299 288 286 289 286 290 291 293 293 291 292 291 288 283 273
32 15 4 356 350 339 335 331 326 326 324 319 316 312 330 306 295 282 282 284 285 297 287 288 294 287 292 293 287 291 288 284 280
17 5 353 343 339 333 333 333 331 328 327 328 322 321 315 297 289 301 304 297 305 292 285 286 284 281 283 284 290 290 286 287 284
358 349 345 342 343 338 337 335 335 331 331 325 326 327 312 315 314 306 313 289 291 298 288 284 292 293 291 286 288 287 284 282 286
352 349 347 344 343 339 339 336 336 326 325 324 320 304 301 308 311 304 300 309 291 294 300 294 293 298 295 286 285 282 284 282 290
349 347 344 342 341 340 339 338 337 330 324 324 320 313 308 305 307 307 306 300 298 295 298 300 287 286 295 289 290 288 284 288 294